Time,TemperatureF,DewpointF,PressureIn,WindDirection,WindDirectionDegrees,WindSpeedMPH,WindSpeedGustMPH,Humidity,HourlyPrecipIn,Conditions,Clouds,dailyrainin,SoftwareType,DateUTC
2013-07-29 00:01:00,68.7,52.2,30.02,SE,146,0.0,0.0,95,0.00,,,0.00,meteohub,2013-07-29 04:01:00,
2013-07-29 00:02:00,68.7,52.2,30.02,SE,146,0.0,0.0,95,0.00,,,0.00,meteohub,2013-07-29 04:02:00,
2013-07-29 00:07:00,68.7,52.2,30.02,SE,146,0.0,0.0,95,0.00,,,0.00,meteohub,2013-07-29 04:07:00,
2013-07-29 00:12:00,68.7,52.2,30.01,SE,146,0.0,0.0,95,0.00,,,0.00,meteohub,2013-07-29 04:12:00,
2013-07-29 00:17:00,68.7,52.2,30.01,SE,146,0.0,0.0,95,0.00,,,0.00,meteohub,2013-07-29 04:17:00,
2013-07-29 00:22:00,68.7,52.2,30.00,SE,146,0.0,0.0,95,0.00,,,0.00,meteohub,2013-07-29 04:22:00,
2013-07-29 00:27:00,68.7,52.2,30.01,SE,146,0.0,0.0,95,0.00,,,0.00,meteohub,2013-07-29 04:27:00,
2013-07-29 00:32:00,68.7,52.2,30.00,SE,146,0.0,0.0,95,0.00,,,0.00,meteohub,2013-07-29 04:32:00,
2013-07-29 00:37:00,68.7,52.2,30.01,SE,146,0.0,0.0,95,0.00,,,0.00,meteohub,2013-07-29 04:37:00,
2013-07-29 00:42:00,68.5,52.2,30.01,NNW,327,0.0,0.0,95,0.00,,,0.00,meteohub,2013-07-29 04:42:00,
2013-07-29 00:47:00,68.5,52.2,30.01,NNW,327,0.0,2.0,95,0.00,,,0.00,meteohub,2013-07-29 04:47:00,
2013-07-29 00:52:00,68.5,52.2,30.00,NNW,327,0.0,2.0,95,0.00,,,0.00,meteohub,2013-07-29 04:52:00,
2013-07-29 00:57:00,68.5,52.2,30.00,SE,133,0.0,1.0,95,0.00,,,0.00,meteohub,2013-07-29 04:57:00,
2013-07-29 01:02:00,68.5,52.2,30.00,SE,133,0.0,2.0,95,0.00,,,0.00,meteohub,2013-07-29 05:02:00,
2013-07-29 01:07:00,68.5,52.2,30.00,SE,133,0.0,2.0,95,0.00,,,0.00,meteohub,2013-07-29 05:07:00,
2013-07-29 01:12:00,68.5,52.7,30.00,South,180,0.0,2.0,96,0.00,,,0.00,meteohub,2013-07-29 05:12:00,
2013-07-29 01:17:00,68.5,52.0,29.99,WNW,300,0.0,2.0,96,0.00,,,0.00,meteohub,2013-07-29 05:17:00,
2013-07-29 01:22:00,68.5,52.0,29.99,WNW,300,0.0,2.0,96,0.00,,,0.00,meteohub,2013-07-29 05:22:00,
2013-07-29 01:27:00,68.7,52.5,29.99,WNW,299,0.0,2.0,96,0.00,,,0.00,meteohub,2013-07-29 05:27:00,
2013-07-29 01:32:00,68.7,52.5,29.99,WNW,300,0.0,0.0,96,0.00,,,0.00,meteohub,2013-07-29 05:32:00,
2013-07-29 01:38:00,68.7,52.5,29.99,WNW,299,0.0,0.0,96,0.00,,,0.00,meteohub,2013-07-29 05:38:00,
2013-07-29 01:43:00,68.7,52.5,29.99,WNW,299,0.0,0.0,96,0.00,,,0.00,meteohub,2013-07-29 05:43:00,
2013-07-29 01:47:00,68.5,52.0,29.99,WNW,299,0.0,0.0,96,0.00,,,0.00,meteohub,2013-07-29 05:47:00,
2013-07-29 01:52:00,68.4,52.5,29.99,WNW,299,0.0,0.0,96,0.00,,,0.00,meteohub,2013-07-29 05:52:00,
2013-07-29 01:57:00,68.2,52.5,29.99,WNW,300,0.0,1.0,96,0.00,,,0.00,meteohub,2013-07-29 05:57:00,
2013-07-29 02:02:00,68.2,52.5,29.99,WNW,300,0.0,1.0,95,0.00,,,0.00,meteohub,2013-07-29 06:02:00,
2013-07-29 02:08:00,67.8,52.5,29.99,WNW,300,0.0,1.0,95,0.00,,,0.00,meteohub,2013-07-29 06:08:00,
2013-07-29 02:13:00,67.6,52.5,29.99,WNW,300,0.0,0.0,96,0.00,,,0.00,meteohub,2013-07-29 06:13:00,
2013-07-29 02:18:00,67.5,52.5,29.99,WNW,299,0.0,0.0,95,0.00,,,0.00,meteohub,2013-07-29 06:18:00,
2013-07-29 02:23:00,67.3,52.5,29.98,WNW,299,0.0,0.0,96,0.00,,,0.00,meteohub,2013-07-29 06:23:00,
2013-07-29 02:28:00,67.1,52.5,29.98,WNW,300,0.0,0.0,96,0.00,,,0.00,meteohub,2013-07-29 06:28:00,
2013-07-29 02:33:00,67.3,52.5,29.98,WNW,300,0.0,0.0,96,0.00,,,0.00,meteohub,2013-07-29 06:33:00,
2013-07-29 02:38:00,67.1,52.5,29.98,WNW,300,0.0,0.0,96,0.00,,,0.00,meteohub,2013-07-29 06:38:00,
2013-07-29 02:43:00,67.1,52.5,29.98,WNW,300,0.0,0.0,96,0.00,,,0.00,meteohub,2013-07-29 06:43:00,
2013-07-29 02:48:00,67.3,52.5,29.98,WNW,300,0.0,0.0,96,0.00,,,0.00,meteohub,2013-07-29 06:48:00,
2013-07-29 02:53:00,67.3,52.5,29.98,WNW,299,0.0,0.0,96,0.00,,,0.00,meteohub,2013-07-29 06:53:00,
2013-07-29 02:58:00,67.3,52.5,29.98,WNW,300,0.0,0.0,96,0.00,,,0.00,meteohub,2013-07-29 06:58:00,
2013-07-29 03:03:00,67.3,52.5,29.98,WNW,300,0.0,0.0,96,0.00,,,0.00,meteohub,2013-07-29 07:03:00,
2013-07-29 03:08:00,67.1,52.5,29.98,WNW,299,0.0,0.0,96,0.00,,,0.00,meteohub,2013-07-29 07:08:00,
2013-07-29 03:13:00,67.1,52.5,29.99,WNW,299,0.0,0.0,96,0.00,,,0.00,meteohub,2013-07-29 07:13:00,
2013-07-29 03:18:00,67.3,52.5,29.98,WNW,300,0.0,0.0,97,0.00,,,0.00,meteohub,2013-07-29 07:18:00,
2013-07-29 03:23:00,67.3,52.5,29.99,WNW,300,0.0,0.0,97,0.00,,,0.00,meteohub,2013-07-29 07:23:00,
2013-07-29 03:28:00,67.5,52.5,29.99,WNW,300,0.0,0.0,96,0.00,,,0.00,meteohub,2013-07-29 07:28:00,
2013-07-29 03:33:00,67.5,52.5,29.99,WNW,299,0.0,0.0,96,0.00,,,0.00,meteohub,2013-07-29 07:33:00,
2013-07-29 03:38:00,67.5,52.5,29.99,WNW,300,0.0,0.0,97,0.00,,,0.00,meteohub,2013-07-29 07:38:00,
2013-07-29 03:43:00,67.5,52.5,29.99,WNW,300,0.0,0.0,96,0.00,,,0.00,meteohub,2013-07-29 07:43:00,
2013-07-29 03:48:00,67.5,52.5,29.99,WNW,299,0.0,0.0,96,0.00,,,0.00,meteohub,2013-07-29 07:48:00,
2013-07-29 03:53:00,67.5,52.5,29.99,WNW,300,0.0,0.0,97,0.00,,,0.00,meteohub,2013-07-29 07:53:00,
2013-07-29 03:58:00,67.5,52.5,29.99,WNW,300,0.0,0.0,97,0.00,,,0.00,meteohub,2013-07-29 07:58:00,
2013-07-29 04:03:00,67.5,52.5,29.99,WNW,299,0.0,0.0,97,0.00,,,0.00,meteohub,2013-07-29 08:03:00,
2013-07-29 04:08:00,67.6,52.5,29.99,WNW,300,0.0,0.0,97,0.00,,,0.00,meteohub,2013-07-29 08:08:00,
2013-07-29 04:13:00,67.6,52.5,29.99,WNW,300,0.0,0.0,97,0.00,,,0.00,meteohub,2013-07-29 08:13:00,
2013-07-29 04:18:00,67.5,52.5,29.99,WNW,299,0.0,0.0,97,0.00,,,0.00,meteohub,2013-07-29 08:18:00,
2013-07-29 04:23:00,67.5,52.5,29.99,WNW,300,0.0,2.0,97,0.00,,,0.00,meteohub,2013-07-29 08:23:00,
2013-07-29 04:28:00,67.5,52.5,29.99,WNW,300,0.0,2.0,97,0.00,,,0.00,meteohub,2013-07-29 08:28:00,
2013-07-29 04:33:00,67.5,52.5,29.99,SW,225,0.0,1.0,97,0.00,,,0.00,meteohub,2013-07-29 08:33:00,
2013-07-29 04:38:00,67.3,52.5,29.99,SW,226,0.0,1.0,97,0.00,,,0.00,meteohub,2013-07-29 08:38:00,
2013-07-29 04:43:00,67.3,52.5,29.99,SW,226,0.0,1.0,97,0.00,,,0.00,meteohub,2013-07-29 08:43:00,
2013-07-29 04:48:00,67.3,52.5,29.99,WSW,241,0.0,1.0,97,0.00,,,0.00,meteohub,2013-07-29 08:48:00,
2013-07-29 04:53:00,67.3,52.5,29.99,WSW,242,0.0,1.0,97,0.00,,,0.00,meteohub,2013-07-29 08:53:00,
2013-07-29 04:58:00,67.3,52.5,29.99,WSW,242,0.0,1.0,97,0.00,,,0.00,meteohub,2013-07-29 08:58:00,
2013-07-29 05:03:00,67.5,52.5,29.99,WSW,241,0.0,1.0,96,0.00,,,0.00,meteohub,2013-07-29 09:03:00,
2013-07-29 05:08:00,67.5,52.5,29.99,WSW,242,0.0,1.0,96,0.00,,,0.00,meteohub,2013-07-29 09:08:00,
2013-07-29 05:13:00,67.5,52.5,29.99,WSW,242,0.0,1.0,96,0.00,,,0.00,meteohub,2013-07-29 09:13:00,
2013-07-29 05:18:00,67.5,52.5,29.99,WSW,242,0.0,1.0,96,0.00,,,0.00,meteohub,2013-07-29 09:18:00,
2013-07-29 05:23:00,67.5,52.5,29.99,WSW,241,0.0,1.0,96,0.00,,,0.00,meteohub,2013-07-29 09:23:00,
2013-07-29 05:28:00,67.5,52.5,30.00,WSW,242,0.0,1.0,96,0.00,,,0.00,meteohub,2013-07-29 09:28:00,
2013-07-29 05:33:00,67.5,52.5,29.99,WSW,242,0.0,1.0,96,0.00,,,0.00,meteohub,2013-07-29 09:33:00,
2013-07-29 05:38:00,67.6,52.5,30.00,WSW,241,0.0,1.0,96,0.00,,,0.00,meteohub,2013-07-29 09:38:00,
2013-07-29 05:43:00,67.5,52.5,30.00,WSW,242,0.0,1.0,96,0.00,,,0.00,meteohub,2013-07-29 09:43:00,
2013-07-29 05:48:00,67.6,52.5,29.99,WSW,242,0.0,2.0,96,0.00,,,0.00,meteohub,2013-07-29 09:48:00,
2013-07-29 05:53:00,67.6,52.5,30.00,WSW,242,0.0,2.0,96,0.00,,,0.00,meteohub,2013-07-29 09:53:00,
2013-07-29 05:58:00,67.6,52.5,30.00,WSW,241,0.0,1.0,96,0.00,,,0.00,meteohub,2013-07-29 09:58:00,
2013-07-29 06:04:00,67.6,52.5,30.01,WSW,242,0.0,0.0,96,0.00,,,0.00,meteohub,2013-07-29 10:04:00,
2013-07-29 06:09:00,67.6,52.5,30.01,WSW,242,0.0,1.0,96,0.00,,,0.00,meteohub,2013-07-29 10:09:00,
2013-07-29 06:14:00,67.6,52.5,30.01,WSW,242,0.0,1.0,96,0.00,,,0.00,meteohub,2013-07-29 10:14:00,
2013-07-29 06:19:00,67.8,52.5,30.01,WSW,242,0.0,1.0,96,0.00,,,0.00,meteohub,2013-07-29 10:19:00,
2013-07-29 06:24:00,67.8,52.5,30.01,WSW,242,0.0,1.0,96,0.00,,,0.00,meteohub,2013-07-29 10:24:00,
2013-07-29 06:30:00,68.0,52.5,30.01,WSW,242,0.0,1.0,96,0.00,,,0.00,meteohub,2013-07-29 10:30:00,
2013-07-29 06:35:00,68.0,52.5,30.01,WSW,241,0.0,1.0,96,0.00,,,0.00,meteohub,2013-07-29 10:35:00,
2013-07-29 06:40:00,68.2,52.5,30.00,WSW,242,0.0,1.0,96,0.00,,,0.00,meteohub,2013-07-29 10:40:00,
2013-07-29 06:45:00,68.2,52.5,30.00,WSW,241,0.0,0.0,96,0.00,,,0.00,meteohub,2013-07-29 10:45:00,
2013-07-29 06:50:00,68.4,52.5,30.00,WSW,242,0.0,0.0,96,0.00,,,0.00,meteohub,2013-07-29 10:50:00,
2013-07-29 06:55:00,68.5,52.5,29.99,WSW,242,0.0,0.0,96,0.00,,,0.00,meteohub,2013-07-29 10:55:00,
2013-07-29 07:00:00,68.7,52.5,29.99,WSW,241,0.0,0.0,96,0.00,,,0.00,meteohub,2013-07-29 11:00:00,
2013-07-29 07:06:00,68.9,52.5,29.99,WSW,241,0.0,1.0,96,0.00,,,0.00,meteohub,2013-07-29 11:06:00,
2013-07-29 07:11:00,69.1,52.5,29.99,SW,228,0.0,1.0,96,0.00,,,0.00,meteohub,2013-07-29 11:11:00,
2013-07-29 07:16:00,69.3,52.5,29.99,SW,228,0.0,1.0,96,0.00,,,0.00,meteohub,2013-07-29 11:16:00,
2013-07-29 07:22:00,69.4,52.5,29.99,SW,228,0.0,1.0,96,0.00,,,0.00,meteohub,2013-07-29 11:22:00,
2013-07-29 07:27:00,69.4,52.5,30.00,SW,228,0.0,1.0,96,0.00,,,0.00,meteohub,2013-07-29 11:27:00,
2013-07-29 07:32:00,69.6,52.5,30.01,SW,228,0.0,1.0,96,0.00,,,0.00,meteohub,2013-07-29 11:32:00,
2013-07-29 07:37:00,69.6,52.5,30.00,SW,228,0.0,1.0,96,0.00,,,0.00,meteohub,2013-07-29 11:37:00,
2013-07-29 07:42:00,69.8,52.5,30.01,SW,227,0.0,1.0,96,0.00,,,0.00,meteohub,2013-07-29 11:42:00,
2013-07-29 07:47:00,70.0,52.7,30.01,SW,227,0.0,1.0,95,0.00,,,0.00,meteohub,2013-07-29 11:47:00,
2013-07-29 07:52:00,70.0,53.4,30.01,SW,227,0.0,1.0,95,0.00,,,0.00,meteohub,2013-07-29 11:52:00,
2013-07-29 07:57:00,70.0,53.4,30.01,SW,227,0.0,1.0,95,0.00,,,0.00,meteohub,2013-07-29 11:57:00,
2013-07-29 08:03:00,70.2,53.4,30.01,SW,228,0.0,1.0,95,0.00,,,0.00,meteohub,2013-07-29 12:03:00,
2013-07-29 08:08:00,70.2,53.4,30.01,SW,228,0.0,1.0,95,0.00,,,0.00,meteohub,2013-07-29 12:08:00,
2013-07-29 08:13:00,70.3,53.4,30.01,SW,228,0.0,1.0,95,0.00,,,0.00,meteohub,2013-07-29 12:13:00,
2013-07-29 08:18:00,70.3,53.4,30.02,SW,228,0.0,1.0,95,0.00,,,0.00,meteohub,2013-07-29 12:18:00,
2013-07-29 08:23:00,70.5,53.4,30.01,SW,227,0.0,0.0,95,0.00,,,0.00,meteohub,2013-07-29 12:23:00,
2013-07-29 08:28:00,70.9,53.4,30.01,SW,228,0.0,0.0,95,0.00,,,0.00,meteohub,2013-07-29 12:28:00,
2013-07-29 08:33:00,71.1,53.4,30.01,SW,228,0.0,0.0,94,0.00,,,0.00,meteohub,2013-07-29 12:33:00,
2013-07-29 08:38:00,71.1,53.6,30.01,SW,227,0.0,0.0,94,0.00,,,0.00,meteohub,2013-07-29 12:38:00,
2013-07-29 08:44:00,71.2,53.6,30.02,SW,228,0.0,0.0,94,0.00,,,0.00,meteohub,2013-07-29 12:44:00,
2013-07-29 08:49:00,71.6,53.6,30.02,SW,228,1.0,0.0,94,0.00,,,0.00,meteohub,2013-07-29 12:49:00,
2013-07-29 08:54:00,71.8,53.6,30.01,SW,227,0.0,0.0,93,0.00,,,0.00,meteohub,2013-07-29 12:54:00,
2013-07-29 08:59:00,72.0,53.6,30.02,SW,228,0.0,2.0,93,0.00,,,0.00,meteohub,2013-07-29 12:59:00,
2013-07-29 09:04:00,72.3,53.6,30.01,NW,316,2.0,2.0,92,0.00,,,0.00,meteohub,2013-07-29 13:04:00,
2013-07-29 09:09:00,72.5,53.6,30.02,NW,306,0.0,1.0,92,0.00,,,0.00,meteohub,2013-07-29 13:09:00,
2013-07-29 09:14:00,72.9,53.6,30.02,NW,306,0.0,5.0,92,0.00,,,0.00,meteohub,2013-07-29 13:14:00,
2013-07-29 09:19:00,73.0,53.6,30.02,NW,306,0.0,5.0,91,0.00,,,0.00,meteohub,2013-07-29 13:19:00,
2013-07-29 09:24:00,73.2,53.6,30.02,NW,313,0.0,1.0,89,0.00,,,0.00,meteohub,2013-07-29 13:24:00,
2013-07-29 09:29:00,73.6,53.6,30.02,NW,313,0.0,4.0,89,0.00,,,0.00,meteohub,2013-07-29 13:29:00,
2013-07-29 09:34:00,73.8,53.8,30.01,NNW,329,0.0,4.0,89,0.00,,,0.00,meteohub,2013-07-29 13:34:00,
2013-07-29 09:40:00,74.1,53.8,30.01,NNW,329,0.0,4.0,88,0.00,,,0.00,meteohub,2013-07-29 13:40:00,
2013-07-29 09:45:00,74.5,53.8,30.01,NNW,330,0.0,5.0,86,0.00,,,0.00,meteohub,2013-07-29 13:45:00,
2013-07-29 09:50:00,74.7,53.8,30.01,NNW,331,0.0,1.0,86,0.00,,,0.00,meteohub,2013-07-29 13:50:00,
2013-07-29 09:56:00,74.8,53.8,30.02,NW,313,0.0,2.0,85,0.00,,,0.00,meteohub,2013-07-29 13:56:00,
2013-07-29 10:01:00,75.0,53.8,30.02,WNW,294,0.0,5.0,83,0.00,,,0.00,meteohub,2013-07-29 14:01:00,
2013-07-29 10:06:00,75.0,53.8,30.02,WNW,301,0.0,6.0,84,0.00,,,0.00,meteohub,2013-07-29 14:06:00,
2013-07-29 10:11:00,75.4,53.8,30.02,WNW,301,0.0,6.0,84,0.00,,,0.00,meteohub,2013-07-29 14:11:00,
2013-07-29 10:17:00,75.6,53.8,30.02,WNW,301,0.0,2.0,84,0.00,,,0.00,meteohub,2013-07-29 14:17:00,
2013-07-29 10:22:00,75.9,53.8,30.02,WNW,298,1.0,2.0,82,0.00,,,0.00,meteohub,2013-07-29 14:22:00,
2013-07-29 10:27:00,75.9,53.8,30.02,WNW,295,2.0,5.0,82,0.00,,,0.00,meteohub,2013-07-29 14:27:00,
2013-07-29 10:32:00,76.1,54.0,30.02,WNW,295,2.0,5.0,82,0.00,,,0.00,meteohub,2013-07-29 14:32:00,
2013-07-29 10:37:00,76.5,54.0,30.02,WNW,295,0.0,5.0,82,0.00,,,0.00,meteohub,2013-07-29 14:37:00,
2013-07-29 10:42:00,76.6,54.0,30.02,WNW,292,0.0,2.0,82,0.00,,,0.00,meteohub,2013-07-29 14:42:00,
2013-07-29 10:47:00,76.6,54.0,30.02,WNW,292,0.0,5.0,82,0.00,,,0.00,meteohub,2013-07-29 14:47:00,
2013-07-29 10:52:00,77.0,54.0,30.02,WNW,297,2.0,5.0,83,0.00,,,0.00,meteohub,2013-07-29 14:52:00,
2013-07-29 10:58:00,77.2,54.0,30.02,WNW,297,0.0,5.0,81,0.00,,,0.00,meteohub,2013-07-29 14:58:00,
2013-07-29 11:04:00,77.4,54.0,30.01,West,279,0.0,3.0,80,0.00,,,0.00,meteohub,2013-07-29 15:04:00,
2013-07-29 11:09:00,77.5,54.0,30.01,NW,313,0.0,3.0,78,0.00,,,0.00,meteohub,2013-07-29 15:09:00,
2013-07-29 11:14:00,78.1,54.1,30.01,NW,313,0.0,6.0,80,0.00,,,0.00,meteohub,2013-07-29 15:14:00,
2013-07-29 11:19:00,78.6,54.1,30.01,WNW,283,0.0,6.0,77,0.00,,,0.00,meteohub,2013-07-29 15:19:00,
2013-07-29 11:25:00,79.3,54.1,30.01,NW,317,2.0,6.0,75,0.00,,,0.00,meteohub,2013-07-29 15:25:00,
2013-07-29 11:30:00,79.3,54.1,30.01,WNW,297,0.0,5.0,74,0.00,,,0.00,meteohub,2013-07-29 15:30:00,
2013-07-29 11:35:00,79.3,54.1,30.01,WNW,296,0.0,5.0,77,0.00,,,0.00,meteohub,2013-07-29 15:35:00,
2013-07-29 11:40:00,79.9,54.3,30.01,WNW,296,0.0,5.0,77,0.00,,,0.00,meteohub,2013-07-29 15:40:00,
2013-07-29 11:45:00,80.4,54.3,30.01,SSW,202,1.0,3.0,74,0.00,,,0.00,meteohub,2013-07-29 15:45:00,
2013-07-29 11:50:00,80.4,54.3,30.01,SSW,202,0.0,4.0,75,0.00,,,0.00,meteohub,2013-07-29 15:50:00,
2013-07-29 11:55:00,80.4,54.3,30.00,SSW,209,0.0,4.0,75,0.00,,,0.00,meteohub,2013-07-29 15:55:00,
2013-07-29 12:00:00,81.0,54.3,30.00,SSW,209,0.0,2.0,77,0.00,,,0.00,meteohub,2013-07-29 16:00:00,
2013-07-29 12:06:00,81.1,54.3,30.00,SSW,195,0.0,2.0,75,0.00,,,0.00,meteohub,2013-07-29 16:06:00,
2013-07-29 12:12:00,81.3,54.3,30.00,NW,322,3.0,3.0,71,0.00,,,0.00,meteohub,2013-07-29 16:12:00,
2013-07-29 12:17:00,81.7,54.3,30.00,NW,326,0.0,6.0,70,0.00,,,0.00,meteohub,2013-07-29 16:17:00,
2013-07-29 12:22:00,82.0,54.3,30.00,SE,142,0.0,6.0,70,0.00,,,0.00,meteohub,2013-07-29 16:22:00,
2013-07-29 12:27:00,82.0,54.5,30.00,SE,144,1.0,5.0,69,0.00,,,0.00,meteohub,2013-07-29 16:27:00,
2013-07-29 12:32:00,82.4,54.5,30.00,SE,125,0.0,5.0,69,0.00,,,0.00,meteohub,2013-07-29 16:32:00,
2013-07-29 12:37:00,82.8,54.5,30.00,South,173,0.0,5.0,70,0.00,,,0.00,meteohub,2013-07-29 16:37:00,
2013-07-29 12:42:00,83.1,54.5,30.00,North,355,0.0,5.0,69,0.00,,,0.00,meteohub,2013-07-29 16:42:00,
2013-07-29 12:47:00,83.5,54.5,29.99,NW,310,0.0,5.0,69,0.00,,,0.00,meteohub,2013-07-29 16:47:00,
2013-07-29 12:52:00,83.7,54.7,29.99,SSE,150,0.0,5.0,68,0.00,,,0.00,meteohub,2013-07-29 16:52:00,
2013-07-29 12:57:00,83.7,54.0,29.99,SE,140,0.0,4.0,64,0.00,,,0.00,meteohub,2013-07-29 16:57:00,
2013-07-29 13:04:00,84.2,54.0,29.99,NNW,333,2.0,4.0,66,0.00,,,0.00,meteohub,2013-07-29 17:04:00,
2013-07-29 13:09:00,84.2,54.0,30.00,WNW,287,0.0,4.0,65,0.00,,,0.00,meteohub,2013-07-29 17:09:00,
2013-07-29 13:14:00,84.9,54.0,29.99,WNW,289,1.0,6.0,64,0.00,,,0.00,meteohub,2013-07-29 17:14:00,
2013-07-29 13:20:00,85.3,54.0,29.99,SSE,163,0.0,6.0,64,0.00,,,0.00,meteohub,2013-07-29 17:20:00,
2013-07-29 13:25:00,85.5,54.0,29.99,SSE,163,0.0,3.0,62,0.00,,,0.00,meteohub,2013-07-29 17:25:00,
2013-07-29 13:30:00,85.3,54.0,29.99,East,101,1.0,2.0,65,0.00,,,0.00,meteohub,2013-07-29 17:30:00,
2013-07-29 13:35:00,84.7,54.1,29.99,NE,44,0.0,5.0,66,0.00,,,0.00,meteohub,2013-07-29 17:35:00,
2013-07-29 13:40:00,83.8,54.1,29.99,NE,44,0.0,5.0,68,0.00,,,0.00,meteohub,2013-07-29 17:40:00,
2013-07-29 13:45:00,83.8,54.0,29.99,NNE,22,0.0,5.0,67,0.00,,,0.00,meteohub,2013-07-29 17:45:00,
2013-07-29 13:50:00,84.0,54.0,29.99,ESE,107,0.0,2.0,67,0.00,,,0.00,meteohub,2013-07-29 17:50:00,
2013-07-29 13:55:00,83.8,54.0,29.99,NW,326,0.0,2.0,67,0.00,,,0.00,meteohub,2013-07-29 17:55:00,
2013-07-29 14:01:00,83.7,54.0,29.99,NW,326,0.0,2.0,67,0.00,,,0.00,meteohub,2013-07-29 18:01:00,
2013-07-29 14:07:00,83.5,54.0,29.99,NW,326,0.0,2.0,68,0.00,,,0.00,meteohub,2013-07-29 18:07:00,
2013-07-29 14:12:00,83.1,54.0,29.98,NW,326,0.0,2.0,70,0.00,,,0.00,meteohub,2013-07-29 18:12:00,
2013-07-29 14:17:00,83.3,54.0,29.98,NW,326,0.0,1.0,69,0.00,,,0.00,meteohub,2013-07-29 18:17:00,
2013-07-29 14:22:00,83.1,54.0,29.98,NNW,334,1.0,1.0,71,0.00,,,0.00,meteohub,2013-07-29 18:22:00,
2013-07-29 14:27:00,83.5,54.0,29.98,NE,36,0.0,3.0,72,0.00,,,0.00,meteohub,2013-07-29 18:27:00,
2013-07-29 14:32:00,83.7,54.0,29.98,ESE,118,0.0,3.0,72,0.00,,,0.00,meteohub,2013-07-29 18:32:00,
2013-07-29 14:38:00,84.2,54.0,29.97,WNW,297,0.0,3.0,69,0.00,,,0.00,meteohub,2013-07-29 18:38:00,
2013-07-29 14:43:00,84.6,54.0,29.97,NW,311,1.0,7.0,68,0.00,,,0.00,meteohub,2013-07-29 18:43:00,
2013-07-29 14:49:00,84.4,54.0,29.97,NW,307,0.0,7.0,66,0.00,,,0.00,meteohub,2013-07-29 18:49:00,
2013-07-29 14:54:00,84.7,54.0,29.96,NW,323,1.0,7.0,69,0.00,,,0.00,meteohub,2013-07-29 18:54:00,
2013-07-29 14:59:00,84.7,54.0,29.97,WNW,283,0.0,6.0,64,0.00,,,0.00,meteohub,2013-07-29 18:59:00,
2013-07-29 15:04:00,84.7,54.0,29.97,NW,318,0.0,6.0,69,0.00,,,0.00,meteohub,2013-07-29 19:04:00,
2013-07-29 15:09:00,84.7,54.0,29.97,WNW,297,2.0,5.0,69,0.00,,,0.00,meteohub,2013-07-29 19:09:00,
2013-07-29 15:14:00,84.4,54.0,29.96,WNW,292,0.0,5.0,70,0.00,,,0.00,meteohub,2013-07-29 19:14:00,
2013-07-29 15:19:00,83.7,54.0,29.96,West,262,0.0,5.0,70,0.00,,,0.00,meteohub,2013-07-29 19:19:00,
2013-07-29 15:25:00,83.1,54.0,29.96,NNW,329,0.0,4.0,71,0.00,,,0.00,meteohub,2013-07-29 19:25:00,
2013-07-29 15:30:00,82.8,54.0,29.96,NNW,329,0.0,1.0,73,0.00,,,0.00,meteohub,2013-07-29 19:30:00,
2013-07-29 15:35:00,82.0,54.0,29.96,NNW,329,0.0,2.0,74,0.00,,,0.00,meteohub,2013-07-29 19:35:00,
2013-07-29 15:40:00,81.7,54.1,29.96,NNW,329,0.0,2.0,76,0.00,,,0.00,meteohub,2013-07-29 19:40:00,
2013-07-29 15:45:00,81.3,54.1,29.95,NNW,329,0.0,1.0,80,0.00,,,0.00,meteohub,2013-07-29 19:45:00,
2013-07-29 15:50:00,80.8,54.1,29.95,NNW,329,0.0,1.0,84,0.00,,,0.03,meteohub,2013-07-29 19:50:00,
2013-07-29 15:55:00,80.1,54.1,29.95,NNW,329,0.0,1.0,86,0.03,,,0.03,meteohub,2013-07-29 19:55:00,
2013-07-29 16:00:00,79.3,54.1,29.97,NNW,329,0.0,1.0,86,0.03,,,0.05,meteohub,2013-07-29 20:00:00,
2013-07-29 16:06:00,77.5,54.0,29.98,NNE,12,0.0,1.0,85,0.05,,,0.05,meteohub,2013-07-29 20:06:00,
2013-07-29 16:11:00,74.7,53.4,29.97,SW,218,0.0,7.0,86,0.11,,,0.11,meteohub,2013-07-29 20:11:00,
2013-07-29 16:16:00,73.0,53.4,29.96,SW,218,0.0,7.0,90,0.17,,,0.17,meteohub,2013-07-29 20:16:00,
2013-07-29 16:22:00,73.0,53.4,29.96,SW,219,0.0,5.0,92,0.18,,,0.18,meteohub,2013-07-29 20:22:00,
2013-07-29 16:27:00,73.0,53.4,29.96,SW,219,0.0,1.0,94,0.24,,,0.24,meteohub,2013-07-29 20:27:00,
2013-07-29 16:32:00,73.4,53.2,29.96,SW,219,0.0,1.0,95,0.27,,,0.27,meteohub,2013-07-29 20:32:00,
2013-07-29 16:37:00,74.1,53.2,29.95,SW,218,0.0,0.0,95,0.29,,,0.29,meteohub,2013-07-29 20:37:00,
2013-07-29 16:42:00,74.7,53.2,29.95,SW,218,0.0,0.0,95,0.34,,,0.34,meteohub,2013-07-29 20:42:00,
2013-07-29 16:47:00,74.8,53.4,29.95,SSE,163,0.0,1.0,95,0.34,,,0.35,meteohub,2013-07-29 20:47:00,
2013-07-29 16:52:00,75.0,53.4,29.96,SW,223,7.0,7.0,93,0.32,,,0.35,meteohub,2013-07-29 20:52:00,
2013-07-29 16:57:00,75.0,53.4,29.96,SSE,159,5.0,9.0,92,0.32,,,0.35,meteohub,2013-07-29 20:57:00,
2013-07-29 17:02:00,75.2,53.4,29.96,SSE,164,0.0,9.0,91,0.30,,,0.35,meteohub,2013-07-29 21:02:00,
2013-07-29 17:07:00,75.4,53.6,29.97,SSE,167,1.0,7.0,92,0.27,,,0.35,meteohub,2013-07-29 21:07:00,
2013-07-29 17:12:00,75.7,53.6,29.97,SSE,163,2.0,7.0,93,0.22,,,0.35,meteohub,2013-07-29 21:12:00,
2013-07-29 17:17:00,75.7,53.6,29.96,SSW,202,1.0,5.0,91,0.17,,,0.35,meteohub,2013-07-29 21:17:00,
2013-07-29 17:22:00,75.9,53.6,29.96,SSE,148,0.0,5.0,91,0.14,,,0.35,meteohub,2013-07-29 21:22:00,
2013-07-29 17:27:00,75.9,53.6,29.96,SSE,148,3.0,5.0,91,0.10,,,0.35,meteohub,2013-07-29 21:27:00,
2013-07-29 17:32:00,76.1,53.6,29.95,SSE,148,2.0,5.0,90,0.06,,,0.35,meteohub,2013-07-29 21:32:00,
2013-07-29 17:38:00,76.3,53.6,29.96,SSE,153,0.0,5.0,90,0.04,,,0.35,meteohub,2013-07-29 21:38:00,
2013-07-29 17:43:00,76.6,53.6,29.96,SSE,152,0.0,5.0,90,0.01,,,0.35,meteohub,2013-07-29 21:43:00,
2013-07-29 17:48:00,76.6,53.6,29.96,SSE,154,0.0,5.0,90,0.00,,,0.35,meteohub,2013-07-29 21:48:00,
2013-07-29 17:53:00,76.6,53.6,29.96,SSE,160,0.0,5.0,88,0.00,,,0.35,meteohub,2013-07-29 21:53:00,
2013-07-29 17:58:00,76.8,53.6,29.96,South,175,0.0,5.0,88,0.00,,,0.35,meteohub,2013-07-29 21:58:00,
2013-07-29 18:04:00,77.2,54.1,29.96,South,174,0.0,6.0,87,0.00,,,0.35,meteohub,2013-07-29 22:04:00,
2013-07-29 18:09:00,77.2,54.1,29.95,SSE,155,4.0,6.0,87,0.00,,,0.35,meteohub,2013-07-29 22:09:00,
2013-07-29 18:14:00,77.4,54.1,29.95,SSE,155,0.0,6.0,86,0.00,,,0.35,meteohub,2013-07-29 22:14:00,
2013-07-29 18:19:00,77.5,54.1,29.95,SSE,157,0.0,7.0,87,0.00,,,0.35,meteohub,2013-07-29 22:19:00,
2013-07-29 18:25:00,77.5,54.1,29.95,SSE,159,0.0,7.0,86,0.00,,,0.35,meteohub,2013-07-29 22:25:00,
2013-07-29 18:30:00,77.7,54.3,29.95,SSE,159,0.0,6.0,86,0.00,,,0.35,meteohub,2013-07-29 22:30:00,
2013-07-29 18:35:00,78.3,54.3,29.96,SSE,159,0.0,5.0,85,0.00,,,0.35,meteohub,2013-07-29 22:35:00,
2013-07-29 18:40:00,78.6,54.3,29.96,SSE,159,0.0,5.0,86,0.00,,,0.35,meteohub,2013-07-29 22:40:00,
2013-07-29 18:45:00,79.0,54.3,29.96,SSE,159,0.0,5.0,85,0.00,,,0.35,meteohub,2013-07-29 22:45:00,
2013-07-29 18:50:00,79.2,54.3,29.96,SSE,159,0.0,5.0,85,0.00,,,0.35,meteohub,2013-07-29 22:50:00,
2013-07-29 18:55:00,79.2,54.3,29.96,SSE,159,0.0,5.0,84,0.00,,,0.35,meteohub,2013-07-29 22:55:00,
2013-07-29 19:00:00,79.2,54.3,29.96,SSE,159,0.0,2.0,83,0.00,,,0.35,meteohub,2013-07-29 23:00:00,
2013-07-29 19:05:00,79.2,54.1,29.96,SSE,159,0.0,5.0,83,0.00,,,0.35,meteohub,2013-07-29 23:05:00,
2013-07-29 19:10:00,79.2,53.6,29.97,SSE,159,0.0,5.0,83,0.00,,,0.35,meteohub,2013-07-29 23:10:00,
2013-07-29 19:15:00,79.2,54.1,29.97,SSE,160,1.0,5.0,83,0.00,,,0.35,meteohub,2013-07-29 23:15:00,
2013-07-29 19:20:00,79.2,54.1,29.97,SSE,160,0.0,5.0,83,0.00,,,0.35,meteohub,2013-07-29 23:20:00,
2013-07-29 19:25:00,79.2,53.6,29.97,SSE,160,0.0,5.0,82,0.00,,,0.35,meteohub,2013-07-29 23:25:00,
2013-07-29 19:30:00,79.0,53.6,29.97,SSE,160,0.0,-999.0,83,0.00,,,0.35,meteohub,2013-07-29 23:30:00,
2013-07-29 19:35:00,78.6,53.6,29.97,SSE,160,0.0,1.0,83,0.00,,,0.35,meteohub,2013-07-29 23:35:00,
2013-07-29 19:40:00,76.1,54.3,29.98,NW,323,0.0,0.0,87,0.00,,,0.35,meteohub,2013-07-29 23:40:00,
2013-07-29 19:45:00,75.6,54.3,29.98,NW,323,0.0,0.0,87,0.00,,,0.35,meteohub,2013-07-29 23:45:00,
2013-07-29 19:50:00,75.0,54.3,29.98,NW,323,0.0,0.0,87,0.00,,,0.35,meteohub,2013-07-29 23:50:00,
2013-07-29 19:56:00,74.7,54.3,29.98,NW,323,0.0,0.0,88,0.00,,,0.35,meteohub,2013-07-29 23:56:00,
2013-07-29 20:01:00,74.5,54.3,29.99,NW,323,0.0,0.0,91,0.00,,,0.35,meteohub,2013-07-30 00:01:00,
2013-07-29 20:07:00,74.5,54.3,29.99,NW,323,0.0,0.0,91,0.00,,,0.35,meteohub,2013-07-30 00:07:00,
2013-07-29 20:12:00,73.8,54.3,29.99,NW,323,0.0,0.0,90,0.00,,,0.00,meteohub,2013-07-30 00:12:00,
2013-07-29 20:17:00,73.2,54.3,29.99,NW,323,0.0,0.0,91,0.00,,,0.00,meteohub,2013-07-30 00:17:00,
2013-07-29 20:22:00,72.9,54.3,29.99,NW,323,0.0,0.0,91,0.00,,,0.00,meteohub,2013-07-30 00:22:00,
2013-07-29 20:27:00,72.7,54.3,30.00,NW,323,0.0,0.0,91,0.00,,,0.00,meteohub,2013-07-30 00:27:00,
2013-07-29 20:33:00,72.3,54.3,30.00,NW,323,0.0,0.0,92,0.00,,,0.00,meteohub,2013-07-30 00:33:00,
2013-07-29 20:38:00,72.1,54.3,30.00,NW,323,0.0,0.0,92,0.00,,,0.00,meteohub,2013-07-30 00:38:00,
2013-07-29 20:43:00,71.8,54.3,30.00,NW,323,0.0,0.0,92,0.00,,,0.00,meteohub,2013-07-30 00:43:00,
2013-07-29 20:48:00,71.4,54.3,30.01,NW,323,0.0,0.0,91,0.00,,,0.00,meteohub,2013-07-30 00:48:00,
2013-07-29 20:53:00,71.2,54.5,30.01,NW,323,0.0,0.0,91,0.00,,,0.00,meteohub,2013-07-30 00:53:00,
2013-07-29 20:58:00,71.1,54.3,30.01,NW,323,0.0,0.0,91,0.00,,,0.00,meteohub,2013-07-30 00:58:00,
2013-07-29 21:03:00,71.1,54.3,30.01,NW,323,0.0,0.0,92,0.00,,,0.00,meteohub,2013-07-30 01:03:00,
2013-07-29 21:09:00,71.1,54.3,30.01,NW,323,0.0,0.0,91,0.00,,,0.00,meteohub,2013-07-30 01:09:00,
2013-07-29 21:14:00,71.2,54.3,30.02,NW,323,0.0,0.0,92,0.00,,,0.00,meteohub,2013-07-30 01:14:00,
2013-07-29 21:19:00,71.2,54.3,30.02,NW,323,0.0,0.0,92,0.00,,,0.00,meteohub,2013-07-30 01:19:00,
2013-07-29 21:24:00,71.2,54.1,30.02,NW,323,0.0,0.0,92,0.00,,,0.00,meteohub,2013-07-30 01:24:00,
2013-07-29 21:30:00,71.4,54.1,30.02,NW,323,0.0,0.0,92,0.00,,,0.00,meteohub,2013-07-30 01:30:00,
2013-07-29 21:35:00,71.2,54.1,30.02,NW,323,0.0,0.0,90,0.00,,,0.00,meteohub,2013-07-30 01:35:00,
2013-07-29 23:22:00,67.3,54.9,30.04,NW,323,0.0,0.0,89,0.00,,,0.00,meteohub,2013-07-30 03:22:00,
2013-07-29 23:27:00,67.1,54.9,30.04,NW,323,0.0,0.0,90,0.00,,,0.00,meteohub,2013-07-30 03:27:00,
2013-07-29 23:32:00,66.9,55.0,30.04,NW,323,0.0,0.0,91,0.00,,,0.00,meteohub,2013-07-30 03:32:00,
2013-07-29 23:38:00,66.9,55.0,30.04,NW,323,0.0,0.0,91,0.00,,,0.00,meteohub,2013-07-30 03:38:00,
2013-07-29 23:43:00,66.6,54.3,30.04,NW,323,0.0,0.0,91,0.00,,,0.00,meteohub,2013-07-30 03:43:00,
2013-07-29 23:48:00,66.4,54.5,30.04,NW,323,0.0,0.0,92,0.00,,,0.00,meteohub,2013-07-30 03:48:00,
2013-07-29 23:53:00,66.2,54.3,30.04,NW,323,0.0,0.0,92,0.00,,,0.00,meteohub,2013-07-30 03:53:00,
2013-07-29 23:58:00,65.8,54.3,30.04,NW,323,0.0,0.0,92,0.00,,,0.00,meteohub,2013-07-30 03:58:00,